User: anonymous   Login
Location: Newark
(48.2308°N, 120.8549°W)
Time: 18:48:26
(UTC+00:00)
Language:

Transit 2A - Orbit

View from above orbital plane
View from above orbital plane
View from above satellite
View from above satellite

Ground track
Ground track

The orbit data is extracted from the following two-line orbital elements,

1    45U 60007A   20158.14454677 -.00000061  00000-0  11979-4 0  9995
2    45  66.6960  50.7293 0260241 322.5395  35.7809 14.33678238121083
Epoch (UTC): 06 June 2020 03:28:08
Eccentricity: 0.0260241
inclination: 66.6960°
perigee height: 593 km
apogee height: 966 km
right ascension of ascending node: 50.7293°
argument of perigee: 322.5395°
revolutions per day: 14.33678238
mean anomaly at epoch: 35.7809°
orbit number at epoch: 12108

The dashed part of the orbit path shows where the satellite is in the earth's shadow,  

DLR